Location: Vancouver
(49.2500°N, 123.1330°W)
Time: 18:55:53
(UTC-08:00)

Cosmos 2333 Rocket - Visible Passes

Search period start: 28 February 2015 00:00
Search period end: 10 March 2015 01:00
Orbit: 839 x 863 km, 70.9° (Epoch: 27 February)

Date Brightness Start Highest point End Pass type
(mag) Time Alt. Az. Time Alt. Az. Time Alt. Az.
28 Feb 4.7 19:34:10 10° WNW 19:37:33 15° NNW 19:40:49 10° N visible
28 Feb 5.1 23:09:50 10° N 23:09:57 10° N 23:09:57 10° N visible
01 Mar 4.7 19:21:54 10° WNW 19:25:17 15° NNW 19:28:34 10° N visible
01 Mar 5.0 22:57:34 10° N 22:58:00 11° N 22:58:00 11° N visible
02 Mar 4.7 19:09:38 10° WNW 19:13:02 15° NNW 19:16:18 10° N visible
02 Mar 4.9 22:45:18 10° N 22:46:01 11° N 22:46:01 11° N visible
03 Mar 4.7 18:57:22 10° WNW 19:00:46 15° NNW 19:04:03 10° N visible
03 Mar 4.9 22:33:03 10° N 22:34:03 11° NNE 22:34:03 11° NNE visible
04 Mar 5.1 00:15:59 10° NNW 00:16:03 10° NNW 00:16:03 10° NNW visible
04 Mar 4.6 18:45:07 10° WNW 18:48:30 15° NNW 18:51:47 10° N visible
04 Mar 4.8 22:20:47 10° N 22:22:04 12° NNE 22:22:04 12° NNE visible
05 Mar 5.1 00:03:43 10° NNW 00:04:04 12° NNW 00:04:04 12° NNW visible
05 Mar 4.6 18:32:51 10° WNW 18:36:15 16° NNW 18:39:32 10° N visible
05 Mar 4.8 22:08:31 10° N 22:10:05 12° NNE 22:10:05 12° NNE visible
05 Mar 5.0 23:51:27 10° NNW 23:52:05 13° NNW 23:52:05 13° NNW visible
06 Mar 4.7 21:56:15 10° N 21:58:06 12° NNE 21:58:06 12° NNE visible
06 Mar 4.9 23:39:11 10° NNW 23:40:06 14° NNW 23:40:06 14° NNW visible
07 Mar 4.6 21:44:00 10° N 21:46:03 12° NNE 21:46:08 12° NNE visible
07 Mar 4.8 23:26:56 10° NNW 23:28:08 16° N 23:28:08 16° N visible
08 Mar 4.6 22:31:44 10° N 22:33:47 12° NNE 22:34:10 12° NNE visible
09 Mar 4.6 00:14:40 10° NNW 00:16:10 17° N 00:16:10 17° N visible
09 Mar 4.6 22:19:29 10° N 22:21:32 12° NNE 22:22:12 12° NNE visible
10 Mar 4.5 00:02:25 10° NNW 00:04:13 19° N 00:04:13 19° N visible
